| time (UTC) | temp F | wind direction | speed knots | gust knots | rain 1hr in | rain 24hr in | rain mn in | humidity % | barometer mb |
| 20260507015105 | 80 | 100 | 4.3 | 6.1 | 0.00 | 0.00 | 0.00 | 91 | 1011.6 |
| 20260507014601 | 80 | 89 | 6.1 | 8.7 | 0.00 | 0.00 | 0.00 | 91 | 1011.2 |
| 20260507014057 | 80 | 95 | 3.5 | 4.3 | 0.00 | 0.00 | 0.00 | 91 | 1011.3 |
| 20260507013554 | 80 | 91 | 5.2 | 6.1 | 0.00 | 0.00 | 0.00 | 91 | 1011.1 |
| 20260507013051 | 80 | 96 | 4.3 | 4.3 | 0.00 | 0.00 | 0.00 | 91 | 1011.1 |
| 20260507012548 | 81 | 91 | 4.3 | 6.1 | 0.00 | 0.00 | 0.00 | 91 | 1011.0 |
| 20260507012044 | 81 | 124 | 4.3 | 6.1 | 0.00 | 0.00 | 0.00 | 91 | 1010.6 |
| 20260507011542 | 81 | 96 | 7.0 | 8.7 | 0.00 | 0.00 | 0.00 | 90 | 1010.8 |
| 20260507011038 | 81 | 107 | 6.1 | 8.7 | 0.00 | 0.00 | 0.00 | 90 | 1010.7 |
| 20260507010532 | 81 | 129 | 7.0 | 8.7 | 0.00 | 0.00 | 0.00 | 90 | 1010.7 |
| 20260507010029 | 81 | 114 | 7.0 | 10.4 | 0.00 | 0.00 | 0.00 | 90 | 1010.7 |
| 20260507005527 | 82 | 91 | 5.2 | 7.8 | 0.00 | 0.00 | 0.00 | 89 | 1010.5 |
| 20260507005023 | 82 | 107 | 6.1 | 7.8 | 0.00 | 0.00 | 0.00 | 89 | 1010.7 |
| 20260507004520 | 82 | 108 | 5.2 | 6.1 | 0.00 | 0.00 | 0.00 | 89 | 1010.6 |
| 20260507004017 | 82 | 111 | 6.1 | 8.7 | 0.00 | 0.00 | 0.00 | 89 | 1010.5 |
| 20260507003512 | 82 | 83 | 5.2 | 6.1 | 0.00 | 0.00 | 0.00 | 88 | 1010.5 |
| 20260507003008 | 82 | 87 | 2.6 | 4.3 | 0.00 | 0.00 | 0.00 | 88 | 1010.6 |
| 20260507002505 | 83 | 99 | 5.2 | 6.1 | 0.00 | 0.00 | 0.00 | 88 | 1010.6 |
| 20260507002001 | 83 | 101 | 5.2 | 6.1 | 0.00 | 0.00 | 0.00 | 88 | 1010.2 |
| 20260507001457 | 83 | 81 | 8.7 | 13.0 | 0.00 | 0.00 | 0.00 | 87 | 1010.2 |
| 20260507000955 | 83 | 90 | 7.8 | 10.4 | 0.00 | 0.00 | 0.00 | 87 | 1009.9 |
| 20260507000451 | 83 | 110 | 5.2 | 7.8 | 0.00 | 0.00 | 0.00 | 87 | 1009.9 |
| 20260506235946 | 83 | 66 | 9.6 | 12.2 | 0.00 | 0.00 | 0.00 | 87 | 1009.8 |
| 20260506235444 | 84 | 97 | 9.6 | 12.2 | 0.00 | 0.00 | 0.00 | 86 | 1010.2 |
| 20260506234939 | 84 | 101 | 10.4 | 12.2 | 0.00 | 0.00 | 0.00 | 86 | 1010.1 |
| 20260506234437 | 84 | 99 | 8.7 | 12.2 | 0.00 | 0.00 | 0.00 | 86 | 1009.9 |
| 20260506233934 | 84 | 57 | 6.1 | 7.8 | 0.00 | 0.00 | 0.00 | 86 | 1009.7 |
| 20260506233431 | 84 | 132 | 7.8 | 10.4 | 0.00 | 0.00 | 0.00 | 86 | 1009.6 |
| 20260506232928 | 84 | 100 | 7.8 | 10.4 | 0.00 | 0.00 | 0.00 | 85 | 1009.7 |
| 20260506232424 | 85 | 179 | 6.1 | 7.8 | 0.00 | 0.00 | 0.00 | 85 | 1009.5 |
| 20260506231920 | 85 | 111 | 8.7 | 12.2 | 0.00 | 0.00 | 0.00 | 84 | 1009.4 |
| 20260506231418 | 85 | 81 | 7.0 | 8.7 | 0.00 | 0.00 | 0.00 | 84 | 1009.4 |
| 20260506230915 | 86 | 144 | 7.0 | 8.7 | 0.00 | 0.00 | 0.00 | 83 | 1009.4 |
| 20260506230411 | 86 | 66 | 6.1 | 7.8 | 0.00 | 0.00 | 0.00 | 83 | 1009.4 |
| 20260506225908 | 86 | 104 | 7.8 | 10.4 | 0.00 | 0.00 | 0.00 | 82 | 1009.4 |
| 20260506225405 | 86 | 102 | 5.2 | 7.8 | 0.00 | 0.00 | 0.00 | 82 | 1009.1 |
| 20260506224902 | 87 | 63 | 4.3 | 6.1 | 0.00 | 0.00 | 0.00 | 82 | 1009.3 |
| 20260506224359 | 87 | 119 | 6.1 | 7.8 | 0.00 | 0.00 | 0.00 | 81 | 1009.3 |
| 20260506223855 | 87 | 123 | 7.0 | 8.7 | 0.00 | 0.00 | 0.00 | 80 | 1009.1 |
| 20260506223350 | 87 | 89 | 6.1 | 7.8 | 0.00 | 0.00 | 0.00 | 80 | 1009.2 |
| 20260506222848 | 87 | 78 | 2.6 | 4.3 | 0.00 | 0.00 | 0.00 | 80 | 1009.2 |
| 20260506222344 | 87 | 77 | 4.3 | 7.8 | 0.00 | 0.00 | 0.00 | 80 | 1009.0 |
| 20260506221842 | 88 | 135 | 2.6 | 2.6 | 0.00 | 0.00 | 0.00 | 79 | 1009.2 |
| 20260506221339 | 89 | 117 | 7.8 | 8.7 | 0.00 | 0.00 | 0.00 | 78 | 1009.3 |
| 20260506220836 | 89 | 90 | 0.9 | 1.7 | 0.00 | 0.00 | 0.00 | 77 | 1009.1 |
| 20260506220332 | 89 | 107 | 3.5 | 6.1 | 0.00 | 0.00 | 0.00 | 77 | 1009.4 |
| 20260506215829 | 89 | 126 | 6.1 | 7.8 | 0.00 | 0.00 | 0.00 | 76 | 1009.3 |
| 20260506215324 | 88 | 158 | 2.6 | 4.3 | 0.00 | 0.00 | 0.00 | 78 | 1009.3 |
| 20260506214820 | 88 | 54 | 4.3 | 6.1 | 0.00 | 0.00 | 0.00 | 78 | 1009.3 |
| 20260506214317 | 88 | 116 | 4.3 | 6.1 | 0.00 | 0.00 | 0.00 | 78 | 1009.3 |
| 20260506213816 | 88 | 104 | 0.9 | 1.7 | 0.00 | 0.00 | 0.00 | 77 | 1009.2 |
| 20260506213313 | 88 | 71 | 4.3 | 6.1 | 0.00 | 0.00 | 0.00 | 78 | 1009.4 |
| 20260506212810 | 88 | 76 | 5.2 | 6.1 | 0.00 | 0.00 | 0.00 | 78 | 1009.3 |
| 20260506212307 | 88 | 52 | 4.3 | 6.1 | 0.00 | 0.00 | 0.00 | 79 | 1009.3 |
| 20260506211800 | 87 | 94 | 3.5 | 4.3 | 0.00 | 0.00 | 0.00 | 80 | 1009.8 |
| 20260506211257 | 87 | 88 | 0.9 | 1.7 | 0.00 | 0.00 | 0.00 | 80 | 1009.5 |
| 20260506210754 | 87 | 96 | 5.2 | 7.8 | 0.00 | 0.00 | 0.00 | 81 | 1009.7 |
| 20260506210251 | 87 | 83 | 1.7 | 4.3 | 0.00 | 0.00 | 0.00 | 80 | 1009.7 |
| 20260506205748 | 87 | 133 | 4.3 | 6.1 | 0.00 | 0.00 | 0.00 | 80 | 1009.7 |
| 20260506205244 | 87 | 92 | 4.3 | 6.1 | 0.00 | 0.00 | 0.00 | 81 | 1009.7 |
| 20260506204741 | 86 | 153 | 5.2 | 6.1 | 0.00 | 0.00 | 0.00 | 81 | 1009.8 |
| 20260506204238 | 87 | 118 | 6.1 | 7.8 | 0.00 | 0.00 | 0.00 | 82 | 1009.8 |
| 20260506203736 | 87 | 117 | 7.0 | 8.7 | 0.00 | 0.00 | 0.00 | 81 | 1009.7 |
| 20260506203233 | 86 | 98 | 6.1 | 7.8 | 0.00 | 0.00 | 0.00 | 81 | 1009.8 |
| 20260506202730 | 86 | 130 | 6.1 | 8.7 | 0.00 | 0.00 | 0.00 | 83 | 1009.9 |
| 20260506202227 | 85 | 168 | 5.2 | 6.1 | 0.00 | 0.00 | 0.00 | 83 | 1009.8 |
| 20260506201724 | 85 | 87 | 4.3 | 4.3 | 0.00 | 0.00 | 0.00 | 84 | 1009.9 |
| 20260506201220 | 85 | 141 | 5.2 | 7.8 | 0.00 | 0.00 | 0.00 | 84 | 1010.0 |
| 20260506200717 | 85 | 91 | 4.3 | 8.7 | 0.00 | 0.00 | 0.00 | 84 | 1010.1 |
| 20260506200208 | 85 | 103 | 3.5 | 4.3 | 0.00 | 0.00 | 0.00 | 84 | 1010.2 |
| 20260506195705 | 85 | 49 | 7.8 | 13.0 | 0.00 | 0.00 | 0.00 | 84 | 1010.2 |
| 20260506195201 | 85 | 131 | 7.8 | 12.2 | 0.00 | 0.00 | 0.00 | 84 | 1010.2 |
| 20260506194659 | 85 | 98 | 4.3 | 6.1 | 0.00 | 0.00 | 0.00 | 83 | 1010.3 |
| 20260506194155 | 85 | 95 | 10.4 | 12.2 | 0.00 | 0.00 | 0.00 | 83 | 1010.4 |
| 20260506193652 | 86 | 135 | 7.8 | 10.4 | 0.00 | 0.00 | 0.00 | 82 | 1010.5 |
| 20260506193149 | 86 | 106 | 6.1 | 8.7 | 0.00 | 0.00 | 0.00 | 82 | 1010.6 |
| 20260506192646 | 86 | 87 | 6.1 | 6.1 | 0.00 | 0.00 | 0.00 | 81 | 1010.5 |
| 20260506192142 | 87 | 122 | 2.6 | 4.3 | 0.00 | 0.00 | 0.00 | 80 | 1010.3 |
| 20260506191639 | 88 | 132 | 5.2 | 7.8 | 0.00 | 0.00 | 0.00 | 77 | 1010.5 |
| 20260506191135 | 89 | 95 | 0.0 | 0.0 | 0.00 | 0.00 | 0.00 | 74 | 1010.6 |
| 20260506190633 | 89 | 120 | 0.0 | 0.0 | 0.00 | 0.00 | 0.00 | 74 | 1010.6 |
| 20260506190129 | 89 | 161 | 1.7 | 1.7 | 0.00 | 0.00 | 0.00 | 75 | 1010.8 |
| 20260506185627 | 89 | 155 | 1.7 | 2.6 | 0.00 | 0.00 | 0.00 | 74 | 1010.6 |
| 20260506185123 | 89 | 186 | 2.6 | 4.3 | 0.00 | 0.00 | 0.00 | 74 | 1010.6 |
| 20260506184620 | 90 | 187 | 0.0 | 1.7 | 0.00 | 0.00 | 0.00 | 73 | 1010.5 |
| 20260506184117 | 90 | 209 | 4.3 | 4.3 | 0.00 | 0.00 | 0.00 | 74 | 1010.8 |
| 20260506183614 | 89 | 118 | 0.0 | 0.0 | 0.00 | 0.00 | 0.00 | 74 | 1010.7 |
| 20260506183110 | 88 | 141 | 2.6 | 2.6 | 0.00 | 0.00 | 0.00 | 75 | 1010.9 |
| 20260506182608 | 88 | 151 | 0.9 | 1.7 | 0.00 | 0.00 | 0.00 | 76 | 1010.9 |
| 20260506182104 | 88 | 152 | 4.3 | 4.3 | 0.00 | 0.00 | 0.00 | 76 | 1010.8 |
| 20260506181602 | 88 | 86 | 0.0 | 0.0 | 0.00 | 0.00 | 0.00 | 75 | 1011.0 |
| 20260506181059 | 88 | 171 | 1.7 | 1.7 | 0.00 | 0.00 | 0.00 | 75 | 1010.9 |
| 20260506180556 | 89 | 180 | 2.6 | 2.6 | 0.00 | 0.00 | 0.00 | 75 | 1010.9 |
| 20260506180052 | 88 | 161 | 4.3 | 6.1 | 0.00 | 0.00 | 0.00 | 75 | 1010.9 |
| 20260506175548 | 87 | 200 | 2.6 | 2.6 | 0.00 | 0.00 | 0.00 | 77 | 1011.1 |
| 20260506175045 | 88 | 183 | 1.7 | 2.6 | 0.00 | 0.00 | 0.00 | 77 | 1010.9 |
| 20260506174544 | 89 | 263 | 3.5 | 4.3 | 0.00 | 0.00 | 0.00 | 75 | 1010.9 |
| 20260506174039 | 88 | 324 | 4.3 | 4.3 | 0.00 | 0.00 | 0.00 | 74 | 1011.1 |
| 20260506173537 | 88 | 196 | 2.6 | 2.6 | 0.00 | 0.00 | 0.00 | 77 | 1011.0 |
| 20260506173034 | 88 | 236 | 6.1 | 8.7 | 0.00 | 0.00 | 0.00 | 76 | 1011.0 |
| 20260506172532 | 88 | 215 | 6.1 | 7.8 | 0.00 | 0.00 | 0.00 | 77 | 1010.9 |
| 20260506172027 | 88 | 235 | 5.2 | 7.8 | 0.00 | 0.00 | 0.00 | 77 | 1010.8 |
| 20260506171525 | 87 | 194 | 3.5 | 4.3 | 0.00 | 0.00 | 0.00 | 78 | 1011.0 |
| 20260506171022 | 87 | 198 | 7.0 | 8.7 | 0.00 | 0.00 | 0.00 | 79 | 1011.0 |
| 20260506170520 | 86 | 255 | 7.0 | 7.8 | 0.00 | 0.00 | 0.00 | 80 | 1010.9 |
| 20260506170012 | 85 | 165 | 3.5 | 4.3 | 0.00 | 0.00 | 0.00 | 81 | 1010.9 |
| 20260506165510 | 84 | 210 | 4.3 | 6.1 | 0.00 | 0.00 | 0.00 | 83 | 1010.9 |
| 20260506165006 | 84 | 166 | 2.6 | 2.6 | 0.00 | 0.00 | 0.00 | 84 | 1011.1 |
| 20260506164503 | 83 | 228 | 2.6 | 2.6 | 0.00 | 0.00 | 0.00 | 85 | 1011.1 |
| 20260506164000 | 83 | 166 | 4.3 | 6.1 | 0.00 | 0.00 | 0.00 | 86 | 1011.0 |
| 20260506163455 | 82 | 165 | 6.1 | 7.8 | 0.00 | 0.00 | 0.00 | 87 | 1011.0 |
| 20260506162950 | 82 | 175 | 6.1 | 7.8 | 0.00 | 0.00 | 0.00 | 87 | 1011.2 |
| 20260506162448 | 82 | 202 | 3.5 | 4.3 | 0.00 | 0.00 | 0.00 | 87 | 1011.2 |
| 20260506161945 | 82 | 198 | 3.5 | 4.3 | 0.00 | 0.00 | 0.00 | 89 | 1011.1 |
| 20260506161443 | 81 | 161 | 4.3 | 4.3 | 0.00 | 0.00 | 0.00 | 89 | 1011.2 |
| 20260506160940 | 81 | 191 | 4.3 | 4.3 | 0.00 | 0.00 | 0.00 | 90 | 1011.0 |
| 20260506160438 | 81 | 154 | 4.3 | 4.3 | 0.00 | 0.00 | 0.00 | 90 | 1011.0 |
| 20260506155935 | 81 | 173 | 5.2 | 7.8 | 0.00 | 0.00 | 0.00 | 89 | 1011.0 |
| 20260506155432 | 81 | 180 | 4.3 | 6.1 | 0.00 | 0.00 | 0.00 | 89 | 1010.9 |
| 20260506153554 | 81 | 190 | 6.1 | 8.7 | 0.00 | 0.00 | 0.00 | 89 | 1010.6 |
| 20260506153051 | 81 | 215 | 5.2 | 6.1 | 0.00 | 0.00 | 0.00 | 90 | 1010.7 |
| 20260506152548 | 81 | 173 | 6.1 | 7.8 | 0.00 | 0.00 | 0.00 | 90 | 1010.5 |
| 20260506152046 | 81 | 173 | 7.8 | 12.2 | 0.00 | 0.00 | 0.00 | 90 | 1010.6 |
| 20260506151544 | 80 | 200 | 3.5 | 6.1 | 0.00 | 0.00 | 0.00 | 90 | 1010.5 |
| 20260506151041 | 80 | 143 | 7.0 | 8.7 | 0.00 | 0.00 | 0.00 | 91 | 1010.5 |
| 20260506150537 | 80 | 183 | 7.0 | 7.8 | 0.00 | 0.00 | 0.00 | 91 | 1010.4 |
| 20260506150034 | 80 | 161 | 8.7 | 13.0 | 0.00 | 0.00 | 0.00 | 91 | 1010.7 |
| 20260506145531 | 80 | 158 | 4.3 | 6.1 | 0.00 | 0.00 | 0.00 | 91 | 1010.7 |
| 20260506145028 | 80 | 162 | 6.1 | 8.7 | 0.00 | 0.00 | 0.00 | 91 | 1010.6 |
| 20260506144525 | 80 | 148 | 7.8 | 12.2 | 0.00 | 0.00 | 0.00 | 91 | 1010.7 |
| 20260506144022 | 80 | 163 | 6.1 | 7.8 | 0.00 | 0.00 | 0.00 | 91 | 1010.6 |
| 20260506143520 | 80 | 162 | 7.0 | 8.7 | 0.00 | 0.00 | 0.00 | 91 | 1010.7 |
| 20260506143019 | 79 | 233 | 7.8 | 12.2 | 0.00 | 0.00 | 0.00 | 91 | 1010.6 |
| 20260506142516 | 79 | 121 | 4.3 | 6.1 | 0.00 | 0.00 | 0.00 | 91 | 1010.8 |
| 20260506142014 | 79 | 176 | 3.5 | 4.3 | 0.00 | 0.00 | 0.00 | 92 | 1010.6 |
| 20260506141511 | 79 | 160 | 6.1 | 7.8 | 0.00 | 0.00 | 0.00 | 92 | 1010.8 |
| 20260506141009 | 79 | 163 | 6.1 | 8.7 | 0.00 | 0.00 | 0.00 | 92 | 1010.9 |
| 20260506140506 | 79 | 137 | 7.0 | 8.7 | 0.00 | 0.00 | 0.00 | 92 | 1010.7 |
| 20260506140004 | 79 | 123 | 6.1 | 7.8 | 0.00 | 0.00 | 0.00 | 92 | 1010.7 |
| 20260506135500 | 79 | 168 | 7.0 | 8.7 | 0.00 | 0.00 | 0.00 | 92 | 1010.7 |
| 20260506134956 | 79 | 123 | 1.7 | 1.7 | 0.00 | 0.00 | 0.00 | 92 | 1010.9 |
| 20260506134452 | 79 | 145 | 4.3 | 6.1 | 0.00 | 0.00 | 0.00 | 92 | 1010.6 |
| 20260506133949 | 79 | 148 | 2.6 | 6.1 | 0.00 | 0.00 | 0.00 | 92 | 1010.7 |
| 20260506133446 | 79 | 153 | 6.1 | 7.8 | 0.00 | 0.00 | 0.00 | 92 | 1010.6 |
| 20260506132943 | 79 | 136 | 2.6 | 4.3 | 0.00 | 0.00 | 0.00 | 92 | 1010.7 |
| 20260506132440 | 78 | 144 | 5.2 | 6.1 | 0.00 | 0.00 | 0.00 | 92 | 1010.5 |
| 20260506131938 | 78 | 177 | 4.3 | 4.3 | 0.00 | 0.00 | 0.00 | 92 | 1010.8 |
| 20260506131434 | 78 | 119 | 1.7 | 2.6 | 0.00 | 0.00 | 0.00 | 92 | 1010.5 |
| 20260506130931 | 78 | 150 | 2.6 | 2.6 | 0.00 | 0.00 | 0.00 | 92 | 1010.6 |
| 20260506130427 | 78 | 149 | 1.7 | 1.7 | 0.00 | 0.00 | 0.00 | 92 | 1010.4 |
| 20260506125925 | 78 | 168 | 2.6 | 4.3 | 0.00 | 0.00 | 0.00 | 92 | 1010.4 |
| 20260506125424 | 78 | 152 | 6.1 | 8.7 | 0.00 | 0.00 | 0.00 | 92 | 1010.5 |
| 20260506124922 | 78 | 140 | 2.6 | 2.6 | 0.00 | 0.00 | 0.00 | 92 | 1010.4 |
| 20260506124419 | 78 | 137 | 3.5 | 4.3 | 0.00 | 0.00 | 0.00 | 92 | 1010.3 |
| 20260506123916 | 78 | 150 | 6.1 | 7.8 | 0.00 | 0.00 | 0.00 | 92 | 1010.2 |
| 20260506123414 | 78 | 96 | 2.6 | 4.3 | 0.00 | 0.00 | 0.00 | 92 | 1010.1 |
| 20260506122911 | 78 | 143 | 6.1 | 6.1 | 0.00 | 0.00 | 0.00 | 92 | 1010.0 |
| 20260506122408 | 78 | 99 | 3.5 | 4.3 | 0.00 | 0.00 | 0.00 | 92 | 1010.2 |
| 20260506121907 | 78 | 138 | 3.5 | 4.3 | 0.00 | 0.00 | 0.00 | 92 | 1010.1 |
| 20260506121403 | 78 | 126 | 7.0 | 8.7 | 0.00 | 0.00 | 0.00 | 92 | 1010.0 |
| 20260506120900 | 78 | 123 | 7.0 | 8.7 | 0.00 | 0.00 | 0.00 | 93 | 1009.9 |
| 20260506120358 | 78 | 116 | 3.5 | 4.3 | 0.00 | 0.00 | 0.00 | 93 | 1009.8 |
| 20260506115855 | 78 | 113 | 1.7 | 2.6 | 0.00 | 0.00 | 0.00 | 93 | 1009.9 |
| 20260506115353 | 77 | 109 | 6.1 | 6.1 | 0.00 | 0.00 | 0.00 | 93 | 1009.7 |
| 20260506114851 | 77 | 105 | 0.9 | 1.7 | 0.00 | 0.00 | 0.00 | 93 | 1009.9 |
| 20260506114348 | 77 | 101 | 1.7 | 1.7 | 0.00 | 0.00 | 0.00 | 93 | 1009.8 |
| 20260506113847 | 78 | 108 | 3.5 | 4.3 | 0.00 | 0.00 | 0.00 | 93 | 1009.9 |
| 20260506113344 | 78 | 130 | 2.6 | 2.6 | 0.00 | 0.00 | 0.00 | 93 | 1009.6 |
| 20260506112840 | 78 | 111 | 3.5 | 4.3 | 0.00 | 0.00 | 0.00 | 92 | 1009.9 |
| 20260506112338 | 78 | 124 | 2.6 | 4.3 | 0.00 | 0.00 | 0.00 | 92 | 1009.8 |
| 20260506111835 | 78 | 100 | 3.5 | 4.3 | 0.00 | 0.00 | 0.00 | 92 | 1009.6 |
| 20260506111333 | 78 | 90 | 2.6 | 2.6 | 0.00 | 0.00 | 0.00 | 92 | 1009.7 |
| 20260506110830 | 78 | 97 | 0.9 | 1.7 | 0.00 | 0.00 | 0.00 | 92 | 1009.7 |
| 20260506110327 | 78 | 127 | 2.6 | 4.3 | 0.00 | 0.00 | 0.00 | 92 | 1009.7 |
| 20260506105824 | 78 | 94 | 1.7 | 1.7 | 0.00 | 0.00 | 0.00 | 92 | 1009.6 |
| 20260506105320 | 78 | 105 | 1.7 | 1.7 | 0.00 | 0.00 | 0.00 | 92 | 1009.6 |
| 20260506104818 | 78 | 91 | 3.5 | 6.1 | 0.00 | 0.00 | 0.00 | 92 | 1009.3 |
| 20260506104316 | 78 | 86 | 3.5 | 4.3 | 0.00 | 0.00 | 0.00 | 92 | 1009.3 |
| 20260506103813 | 78 | 101 | 2.6 | 2.6 | 0.00 | 0.00 | 0.00 | 92 | 1009.6 |
| 20260506103310 | 78 | 103 | 2.6 | 2.6 | 0.00 | 0.00 | 0.00 | 92 | 1009.6 |
| 20260506102808 | 78 | 106 | 2.6 | 2.6 | 0.00 | 0.00 | 0.00 | 92 | 1009.5 |
| 20260506102306 | 78 | 96 | 2.6 | 2.6 | 0.00 | 0.00 | 0.00 | 92 | 1009.6 |
| 20260506101803 | 78 | 131 | 2.6 | 2.6 | 0.00 | 0.00 | 0.00 | 92 | 1009.5 |
| 20260506101258 | 78 | 140 | 2.6 | 2.6 | 0.00 | 0.00 | 0.00 | 92 | 1009.5 |
| 20260506100757 | 78 | 125 | 2.6 | 2.6 | 0.00 | 0.00 | 0.00 | 92 | 1009.4 |
| 20260506100255 | 78 | 103 | 0.0 | 0.0 | 0.00 | 0.00 | 0.00 | 92 | 1009.4 |
| 20260506095753 | 78 | 144 | 4.3 | 4.3 | 0.00 | 0.00 | 0.00 | 92 | 1009.5 |
| 20260506095249 | 78 | 122 | 0.9 | 1.7 | 0.00 | 0.00 | 0.00 | 92 | 1009.5 |
| 20260506094746 | 78 | 134 | 2.6 | 2.6 | 0.00 | 0.00 | 0.00 | 92 | 1009.3 |
| 20260506094245 | 78 | 112 | 3.5 | 4.3 | 0.00 | 0.00 | 0.00 | 92 | 1009.3 |
| 20260506093743 | 78 | 167 | 7.8 | 8.7 | 0.00 | 0.00 | 0.00 | 92 | 1009.4 |
| 20260506093239 | 78 | 124 | 2.6 | 2.6 | 0.00 | 0.00 | 0.00 | 92 | 1009.3 |
| 20260506092737 | 78 | 95 | 4.3 | 6.1 | 0.00 | 0.00 | 0.00 | 92 | 1009.4 |
| 20260506092235 | 78 | 112 | 3.5 | 4.3 | 0.00 | 0.00 | 0.00 | 92 | 1009.2 |
| 20260506091732 | 78 | 130 | 4.3 | 6.1 | 0.00 | 0.00 | 0.00 | 92 | 1009.3 |
| 20260506091230 | 78 | 121 | 2.6 | 4.3 | 0.00 | 0.00 | 0.00 | 92 | 1009.1 |
| 20260506090727 | 78 | 161 | 6.1 | 7.8 | 0.00 | 0.00 | 0.00 | 92 | 1009.2 |
| 20260506090224 | 78 | 140 | 5.2 | 6.1 | 0.00 | 0.00 | 0.00 | 92 | 1009.1 |
| 20260506085721 | 78 | 159 | 6.1 | 7.8 | 0.00 | 0.00 | 0.00 | 92 | 1009.4 |
| 20260506085217 | 78 | 113 | 3.5 | 4.3 | 0.00 | 0.00 | 0.00 | 92 | 1009.0 |
| 20260506084714 | 78 | 140 | 7.0 | 8.7 | 0.00 | 0.00 | 0.00 | 92 | 1009.2 |
| 20260506084210 | 78 | 179 | 3.5 | 4.3 | 0.00 | 0.00 | 0.00 | 92 | 1009.0 |
| 20260506083707 | 78 | 160 | 9.6 | 13.0 | 0.00 | 0.00 | 0.00 | 92 | 1008.9 |
| 20260506083205 | 78 | 130 | 7.8 | 10.4 | 0.00 | 0.00 | 0.00 | 92 | 1008.9 |
| 20260506082702 | 78 | 179 | 4.3 | 7.8 | 0.00 | 0.00 | 0.00 | 92 | 1009.1 |
| 20260506082202 | 78 | 206 | 4.3 | 7.8 | 0.00 | 0.00 | 0.00 | 92 | 1008.7 |
| 20260506081700 | 78 | 188 | 6.1 | 7.8 | 0.00 | 0.00 | 0.00 | 92 | 1008.8 |
| 20260506081158 | 78 | 159 | 6.1 | 8.7 | 0.00 | 0.00 | 0.00 | 92 | 1009.2 |
| 20260506080656 | 78 | 165 | 4.3 | 4.3 | 0.00 | 0.00 | 0.00 | 91 | 1009.0 |
| 20260506080152 | 78 | 131 | 7.0 | 8.7 | 0.00 | 0.00 | 0.00 | 91 | 1009.2 |
| 20260506073136 | 78 | 138 | 7.0 | 10.4 | 0.00 | 0.00 | 0.00 | 91 | 1009.2 |
| 20260506072632 | 78 | 182 | 7.8 | 10.4 | 0.00 | 0.00 | 0.00 | 91 | 1009.4 |
| 20260506072131 | 78 | 169 | 8.7 | 10.4 | 0.00 | 0.00 | 0.00 | 91 | 1009.1 |
| 20260506071628 | 78 | 147 | 10.4 | 13.0 | 0.00 | 0.00 | 0.00 | 91 | 1009.0 |
| 20260506071125 | 78 | 149 | 8.7 | 13.0 | 0.00 | 0.00 | 0.00 | 91 | 1009.0 |
| 20260506070622 | 78 | 146 | 9.6 | 12.2 | 0.00 | 0.00 | 0.00 | 91 | 1009.4 |
| 20260506070119 | 78 | 192 | 6.1 | 8.7 | 0.00 | 0.00 | 0.00 | 91 | 1009.3 |
| 20260506062056 | 78 | 165 | 7.8 | 8.7 | 0.00 | 0.00 | 0.00 | 91 | 1009.8 |
| 20260506061552 | 78 | 143 | 7.0 | 7.8 | 0.00 | 0.00 | 0.00 | 91 | 1009.9 |
| 20260506061050 | 78 | 158 | 9.6 | 10.4 | 0.00 | 0.00 | 0.00 | 91 | 1009.7 |
| 20260506060548 | 78 | 174 | 9.6 | 12.2 | 0.00 | 0.00 | 0.00 | 91 | 1010.0 |
| 20260506051017 | 78 | 202 | 8.7 | 13.0 | 0.00 | 0.00 | 0.00 | 92 | 1010.3 |
| 20260506050515 | 78 | 167 | 5.2 | 10.4 | 0.00 | 0.00 | 0.00 | 92 | 1010.3 |
| 20260506045005 | 78 | 151 | 8.7 | 12.2 | 0.00 | 0.00 | 0.00 | 92 | 1010.0 |
| 20260506044504 | 78 | 171 | 9.6 | 10.4 | 0.00 | 0.00 | 0.00 | 92 | 1010.3 |
| 20260506044000 | 78 | 148 | 4.3 | 6.1 | 0.00 | 0.00 | 0.00 | 92 | 1010.4 |
| 20260506043457 | 78 | 127 | 7.8 | 8.7 | 0.00 | 0.00 | 0.00 | 92 | 1010.1 |
| 20260506042955 | 78 | 157 | 6.1 | 10.4 | 0.00 | 0.00 | 0.00 | 92 | 1010.1 |
| 20260506042454 | 78 | 146 | 5.2 | 7.8 | 0.00 | 0.00 | 0.00 | 92 | 1010.1 |
| 20260506041952 | 78 | 170 | 12.2 | 14.8 | 0.00 | 0.00 | 0.00 | 92 | 1010.2 |
| 20260506041450 | 78 | 195 | 5.2 | 7.8 | 0.00 | 0.00 | 0.00 | 92 | 1009.9 |
| 20260506040947 | 78 | 114 | 7.8 | 10.4 | 0.00 | 0.00 | 0.00 | 92 | 1009.9 |
| 20260506040444 | 78 | 146 | 6.1 | 8.7 | 0.00 | 0.00 | 0.00 | 92 | 1010.1 |
| 20260506035940 | 78 | 139 | 8.7 | 10.4 | 0.00 | 0.00 | 0.00 | 91 | 1009.9 |
| 20260506035438 | 78 | 159 | 7.0 | 8.7 | 0.00 | 0.00 | 0.00 | 91 | 1010.0 |
| 20260506034934 | 78 | 189 | 11.3 | 18.2 | 0.00 | 0.00 | 0.00 | 91 | 1009.9 |
| 20260506034431 | 78 | 195 | 5.2 | 6.1 | 0.00 | 0.00 | 0.00 | 91 | 1009.8 |
| 20260506033929 | 78 | 132 | 4.3 | 6.1 | 0.00 | 0.00 | 0.00 | 91 | 1010.0 |
| 20260506033426 | 78 | 148 | 8.7 | 13.0 | 0.00 | 0.00 | 0.00 | 91 | 1009.7 |
| 20260506032922 | 78 | 176 | 8.7 | 8.7 | 0.00 | 0.00 | 0.00 | 91 | 1009.8 |
| 20260506032419 | 78 | 180 | 9.6 | 13.0 | 0.00 | 0.00 | 0.00 | 91 | 1009.6 |
| 20260506031916 | 78 | 157 | 7.8 | 13.0 | 0.00 | 0.00 | 0.00 | 91 | 1009.7 |
| 20260506031414 | 78 | 202 | 10.4 | 13.0 | 0.00 | 0.00 | 0.00 | 91 | 1009.5 |
| 20260506030911 | 78 | 184 | 13.0 | 20.9 | 0.00 | 0.00 | 0.00 | 91 | 1009.4 |
| 20260506030409 | 78 | 146 | 4.3 | 4.3 | 0.00 | 0.00 | 0.00 | 91 | 1009.4 |
| 20260506025906 | 78 | 172 | 11.3 | 19.1 | 0.00 | 0.00 | 0.00 | 91 | 1009.5 |
| 20260506025403 | 78 | 135 | 8.7 | 12.2 | 0.00 | 0.00 | 0.00 | 91 | 1009.2 |
| 20260506024859 | 78 | 180 | 11.3 | 13.0 | 0.00 | 0.00 | 0.00 | 91 | 1009.3 |
| 20260506024356 | 78 | 153 | 10.4 | 12.2 | 0.00 | 0.00 | 0.00 | 91 | 1009.2 |
| 20260506023852 | 78 | 158 | 9.6 | 13.0 | 0.00 | 0.00 | 0.00 | 91 | 1009.2 |
| 20260506023349 | 78 | 157 | 13.9 | 18.2 | 0.00 | 0.00 | 0.00 | 91 | 1008.9 |
| 20260506022846 | 78 | 155 | 9.6 | 14.8 | 0.00 | 0.00 | 0.00 | 91 | 1009.3 |
| 20260506022343 | 79 | 151 | 7.0 | 8.7 | 0.00 | 0.00 | 0.00 | 91 | 1009.1 |
| 20260506021841 | 79 | 157 | 13.0 | 20.9 | 0.00 | 0.00 | 0.00 | 90 | 1009.1 |
| 20260506021338 | 79 | 132 | 16.5 | 20.9 | 0.00 | 0.00 | 0.00 | 90 | 1009.1 |
| 20260506020835 | 79 | 149 | 8.7 | 12.2 | 0.00 | 0.00 | 0.00 | 90 | 1008.8 |
| 20260506020333 | 79 | 178 | 11.3 | 18.2 | 0.00 | 0.00 | 0.00 | 90 | 1008.8 |
| 20260506015830 | 79 | 133 | 7.0 | 8.7 | 0.00 | 0.00 | 0.00 | 90 | 1008.5 |
| 20260506015327 | 79 | 216 | 7.0 | 8.7 | 0.00 | 0.00 | 0.00 | 90 | 1008.5 |